Location: Peebles
(55.6412°N, 3.1714°W)
Time: 14:12:15
(UTC+01:00)

deb Agena D - Pass Details

Date: 16 September 2024
Orbit: 793 x 976 km, 99.8° (Epoch: 03 October)

Event Time Altitude Azimuth Distance (km) Brightness Sun altitude
Rises 04:06:01 0° 17° (NNE) 3,406 10.3 -21.4°
Reaches altitude 10° 04:08:21 10° 15° (NNE) 2,491 9.4 -21.2°
Maximum altitude 04:13:50 67° 294° (WNW) 956 6.3 -20.6°
Enters shadow 04:15:58 39° 226° (SW) 1,324 6.7 -20.4°
